697  
ASUS44 KEWX 261210  
RWREWX  
SOUTH TEXAS REGIONAL WEATHER ROUNDUP  
NATIONAL WEATHER SERVICE AUSTIN/SAN ANTONIO TX  
700 AM CDT WED JUN 26 2019  
 
NOTE: "FAIR" INDICATED FEW OR NO CLOUDS BELOW 12,000 FEET WITH NO  
SIGNIFICANT WEATHER AND/OR S TO VISIBILITY
.  
 
* - THESE STATIONS ARE NOT NWS OR FAA STATIONS...AND ARE NOT SUBJECT  
TO NWS AND FAA QUALITY CONTROL.
 
 
TXZ171-172-183>190-261300-  
TEXAS HILL COUNTRY AND EDWARDS PLATEAU  
 
CITY SKY/WX TMP DP RH WIND PRES REMARKS
 
JUNCTION MOCLDY 70 67 90 SE5 30.08F  
6HR MIN TEMP: 70; 6HR MAX TEMP: 75;  
 
*LLANO MOCLDY 70 66 88 CALM 30.12R  
BURNET NOT AVBL  
*HORSESHOE BAY PTCLDY 72 68 88 SE5 30.08S  
*KERRVILLE CLOUDY 72 68 88 CALM 30.08F  
6HR MIN TEMP: 66; 6HR MAX TEMP: 72;  
 
*FREDERICKSBRG CLOUDY 70 67 90 CALM 30.09S  
6HR MIN TEMP: 67; 6HR MAX TEMP: 70;  
 
*ROCKSPRINGS CLOUDY 68 66 94 S10 30.15R  
*BOERNE STAGE CLOUDY 68 68 100 CALM 30.08R VSB 3/4  
*CASTROVILLE TSTM 73 73 98 CALM 30.05S  
HONDO CLOUDY 73 70 90 NE3 30.04S  
6HR MIN TEMP: 71; 6HR MAX TEMP: 73;  
 
*UVALDE CLOUDY 72 72 100 NE6 30.05S  
DEL RIO CLOUDY 73 69 87 E9 30.02S  
6HR MIN TEMP: 73; 6HR MAX TEMP: 78;  
 
LAUGHLIN AFB MOCLDY 72 69 92 SE9 30.03S  
6HR MIN TEMP: 71; 6HR MAX TEMP: 75;  
 
CARRIZO SPRGS CLOUDY 73 72 94 CALM 30.00S  

 
 
TXZ173-191>194-202-209-217>225-228-261300-  
CENTRAL AND SOUTH CENTRAL TEXAS  
 
CITY SKY/WX TMP DP RH WIND PRES REMARKS
 
GEORGETOWN MOCLDY 71 69 93 CALM 30.10R  
6HR MIN TEMP: 69; 6HR MAX TEMP: 72;  
 
AUSTIN/BERGSTM MOCLDY 72 70 93 CALM 30.06R  
6HR MIN TEMP: 69; 6HR MAX TEMP: 73;  
 
AUSTIN/MABRY CLOUDY 73 68 84 CALM 30.08R HAZE  
6HR MIN TEMP: 71; 6HR MAX TEMP: 74;  
 
*AUSTIN/EXEC CLOUDY 70 68 94 CALM 30.08R  
*LAGO VISTA CLOUDY 70 69 94 CALM 30.10R  
6HR MIN TEMP: 69; 6HR MAX TEMP: 70;  
 
SAN MARCOS CLOUDY 72 71 97 NE3 30.06S  
6HR MIN TEMP: 69; 6HR MAX TEMP: 72;  
 
NEW BRAUNFELS CLOUDY 74 70 87 E6 30.04R FOG  
6HR MIN TEMP: 71; 6HR MAX TEMP: 74;  
 
RANDOLPH AFB CLOUDY 74 72 93 E5 30.04S  
6HR MIN TEMP: 71; 6HR MAX TEMP: 74;  
 
RANDOLPH AUX CLOUDY 73 71 92 E5 30.09S  
6HR MIN TEMP: 71; 6HR MAX TEMP: 73;  
 
PT SAN ANTONIO CLOUDY 76 73 90 E10 30.02S  
6HR MIN TEMP: 72; 6HR MAX TEMP: 76;  
 
SAN ANTONIO LGT RAIN 75 72 90 E8 30.04S  
6HR MIN TEMP: 72; 6HR MAX TEMP: 75; 6HR PCP: TRACE;  
 
STINSON FIELD CLOUDY 78 72 81 SE10 30.01S  
6HR MIN TEMP: 74; 6HR MAX TEMP: 78;  
 
*LA GRANGE CLEAR 74 74 100 CALM 30.04S  
6HR MIN TEMP: 74; 6HR MAX TEMP: 75;  
 
*GIDDINGS CLEAR 74 72 91 CALM 30.07S FOG  
6HR MIN TEMP: 73; 6HR MAX TEMP: 75;  
 
*GONZALES CLOUDY 75 74 95 E3 30.04S  
6HR MIN TEMP: 75; 6HR MAX TEMP: 75;  
 

 
 
TXZ163>164-176>182-195>201-210>213-226-227-235-261300-  
SOUTHEAST TEXAS  
 
CITY SKY/WX TMP DP RH WIND PRES REMARKS
 
COLLEGE STN CLEAR 74 70 87 CALM 30.08R  
6HR MIN TEMP: 71; 6HR MAX TEMP: 74;  
 
*BRYAN PTCLDY 73 73 100 CALM 30.10R  
6HR MIN TEMP: 71; 6HR MAX TEMP: 73;  
 
*CALDWELL PTCLDY 72 70 94 NE3 30.08S  
6HR MIN TEMP: 69; 6HR MAX TEMP: 72;  
 
*CROCKETT N/A 72 68 88 CALM 30.14R  
*BRENHAM CLEAR 74 73 97 CALM 30.08R  
6HR MIN TEMP: 73; 6HR MAX TEMP: 75;  
 
HUNTSVILLE CLEAR 77 68 73 CALM 30.09R  
6HR MIN TEMP: 71; 6HR MAX TEMP: 77;  
 
CONROE CLEAR 73 70 90 CALM 30.09R  
6HR MIN TEMP: 71; 6HR MAX TEMP: 74;  
 
HOUSTON BUSH MOCLDY 75 75 100 SE3 30.07R  
6HR MIN TEMP: 72; 6HR MAX TEMP: 75;  
 
HOUSTON HOBBY MOCLDY 78 72 81 E5 30.06R  
6HR MIN TEMP: 74; 6HR MAX TEMP: 78;  
 
*HOUSTON SW AP FAIR 74 74 99 CALM 30.07R  
6HR MIN TEMP: 72; 6HR MAX TEMP: 74;  
 
PEARLAND FAIR 78 74 87 E5 30.07R  
6HR MIN TEMP: 74; 6HR MAX TEMP: 80; 6HR PCP: TRACE;  
 
HOUSTON HOOKS FAIR 73 70 90 E3 30.07R  
6HR MIN TEMP: 72; 6HR MAX TEMP: 73;  
 
ELLINGTON FLD MOCLDY 77 72 83 E5 30.05R  
SUGAR LAND FAIR 77 75 93 SE6 30.06R  
6HR MIN TEMP: 74; 6HR MAX TEMP: 77; 6HR PCP: TRACE;  
 
*HOUSTON EXEC FAIR 77 75 94 SE9G15 30.07R  
*CLEVELAND MUN FAIR 71 71 100 CALM 30.10S  
6HR MIN TEMP: 71; 6HR MAX TEMP: 72;  
 
*WHARTON CLEAR 76 73 88 E7 30.06R  
6HR MIN TEMP: 73; 6HR MAX TEMP: 76;  
 
*COLUMBUS FAIR 74 69 86 CALM 30.07R  
6HR MIN TEMP: 73; 6HR MAX TEMP: 74;  
 
*EAGLE LAKE SUNNY 77 75 95 CALM 30.06  
6HR MIN TEMP: 74; 6HR MAX TEMP: 77;  
 

 
 
TXZ214>216-236>238-261300-  
THE UPPER TEXAS COAST  
 
CITY SKY/WX TMP DP RH WIND PRES REMARKS
 
*ORANGE FAIR 73 73 100 E3 30.12R  
6HR MIN TEMP: 72; 6HR MAX TEMP: 73;  
 
PORT ARTHUR FAIR 76 72 87 E8 30.08R  
6HR MIN TEMP: 74; 6HR MAX TEMP: 76;  
 
GALVESTON FAIR 83 77 82 SE14 30.07R HX 92  
6HR MIN TEMP: 81; 6HR MAX TEMP: 83;  
 
ANGLETON FAIR 77 74 90 NE3 30.06R  
6HR MIN TEMP: 76; 6HR MAX TEMP: 78;  
 
*BAY CITY CLEAR 80 78 94 SE5 30.05R  
PALACIOS CLEAR 82 75 79 SE13 30.03R  
6HR MIN TEMP: 79; 6HR MAX TEMP: 82;  
 

 
 
TXZ229>234-239>247-261300-  
TEXAS COASTAL BEND AND RIO GRANDE PLAINS  
 
CITY SKY/WX TMP DP RH WIND PRES REMARKS
 
VICTORIA MOCLDY 76 74 93 NE3 30.03R  
6HR MIN TEMP: 74; 6HR MAX TEMP: 77;  
 
*BEEVILLE CLOUDY 82 75 81 E7 30.02R  
6HR MIN TEMP: 79; 6HR MAX TEMP: 82;  
 
ROCKPORT CLEAR 81 77 88 SE15 30.00R FOG  
6HR MIN TEMP: 80; 6HR MAX TEMP: 81;  
 
*PORT ARANSAS MOCLDY 82 78 89 SE12 30.02R FOG HX 92  
6HR MIN TEMP: 81; 6HR MAX TEMP: 82;  
 
*PORT LAVACA PTCLDY 81 78 89 SE9 30.03R  
6HR MIN TEMP: 81; 6HR MAX TEMP: 82;  
 
*INGLESIDE PTCLDY 82 78 88 SE9 30.00R FOG HX 91  
CORPUS CHRISTI MOCLDY 81 78 91 SE12 30.00R  
6HR MIN TEMP: 81; 6HR MAX TEMP: 82;  
 
CORPUS NAS MOCLDY 82 80 94 SE12 30.00R HX 94  
6HR MIN TEMP: 81; 6HR MAX TEMP: 82;  
 
*ROBSTOWN MOCLDY 79 77 94 S6 30.01R FOG  
6HR MIN TEMP: 78; 6HR MAX TEMP: 80;  
 
ALICE CLOUDY 79 76 90 SE6 29.99S FOG  
6HR MIN TEMP: 78; 6HR MAX TEMP: 80;  
 
KINGSVILLE NAS CLOUDY 79 77 94 SE5 29.99S FOG  
6HR MIN TEMP: 78; 6HR MAX TEMP: 81;  
 
COTULLA CLOUDY 76 74 93 E5 30.01R  
6HR MIN TEMP: 74; 6HR MAX TEMP: 76; 6HR PCP: TRACE;  
 
LAREDO CLEAR 77 74 90 SE7 29.99R  
6HR MIN TEMP: 77; 6HR MAX TEMP: 80;  
 

 
 
TXZ248>255-261300-  
DEEP SOUTH TEXAS  
 
CITY SKY/WX TMP DP RH WIND PRES REMARKS
 
BROWNSVILLE FAIR 81 78 91 SE7 29.98R  
6HR MIN TEMP: 80; 6HR MAX TEMP: 83;  
 
PORT ISABEL FAIR 80 76 87 SE7 29.98R FOG  
6HR MIN TEMP: 80; 6HR MAX TEMP: 82;  
 
HARLINGEN CLEAR N/A N/A N/A E9 29.99R  
*HEBBRONV  
 
CLICK HERE TO GO TO PREVIOUS BULLETINS.

The Nexlab TX Page Main Text Page